Regional Weather Roundup
Issued by NWS Upton, NY

Current Version | Previous Version | Graphics & Text | Print | Product List | Glossary Off
Versions: 1 2 3 4 5 6 7 8 9 10 11 12 13 14 15 16 17 18 19 20 21 22 23 24 25 26 27 28 29 30 31 32 33 34 35 36 37 38 39 40 41 42 43 44 45 46 47 48 49 50

000
ASUS41 KOKX 240505
RWROKX

REGIONAL WEATHER ROUNDUP
NATIONAL WEATHER SERVICE NEW YORK NY
100 AM EDT WED AUG 24 2016

NOTE: "FAIR" INDICATES FEW OR NO CLOUDS BELOW 12,000 FEET WITH NO
SIGNIFICANT WEATHER AND/OR OBSTRUCTIONS TO VISIBILITY.

NYZ071-072-176-178-NJZ106-104-240600-
NEW YORK CITY METRO AREA

CITY           SKY/WX    TMP DP  RH WIND       PRES   REMARKS
Central Park   NOT AVBL
LaGuardia APRT CLEAR     74  58  57 SW7       30.28R
Kennedy INTL   CLEAR     70  63  78 W9        30.30R
Newark/Liberty CLEAR     70  57  63 SW7       30.28R
Bronx Bot Gard   N/A     72  57  60 E1        30.29R
Wall St Helipt CLEAR     72  63  73 W7        30.29R
Teterboro      CLEAR     71  58  63 S3        30.27R
$$

NYZ177-179-078>081-240600-
LONG ISLAND NEW YORK

CITY           SKY/WX    TMP DP  RH WIND       PRES   REMARKS
Farmingdale    CLEAR     69  62  78 CALM      30.29R
MacArthur/ISP  CLEAR     68  61  78 SW5       30.28R
Shirley        CLEAR     67  60  78 CALM      30.29R
Riverhead      NOT AVBL
Westhampton    CLEAR     58  54  86 CALM      30.30R
Southampton      N/A     70  64  83 SW2       30.25S
Bridgehampton    N/A     63  59  88 CALM      30.27S
East Hampton   FAIR      57  56  94 CALM      30.28S
Montauk          N/A     69  62  78 SW5       30.29R
$$

NYZ052-065-067-240600-
HUDSON VALLEY

CITY           SKY/WX    TMP DP  RH WIND       PRES   REMARKS
White Plains   CLEAR     65  61  87 SW3       30.28S
Newburgh       CLEAR     63  59  88 W6        30.30R
Montgomery     CLEAR     60  58  92 CALM      30.29R
Poughkeepsie   CLEAR     62  58  86 CALM      30.27R
Albany         PTCLDY    62  58  86 CALM      30.27R
$$

NJZ001-105-106-008-010-013-015-019>022-104-240600-
NEW JERSEY

CITY           SKY/WX    TMP DP  RH WIND       PRES   REMARKS
Newark/Liberty CLEAR     70  57  63 SW7       30.28R
Teterboro      CLEAR     71  58  63 S3        30.27R
Caldwell         N/A     64  59  83 CALM      30.29R
Morristown     CLEAR     59  57  94 CALM      30.29S
Somerville     PTCLDY    60  58  92 CALM      30.28R
Linden         FAIR      69  56  65 CALM      30.30S
Sussex         CLEAR     58  58 100 CALM      30.30R
Abdover        NOT AVBL
Trenton        CLEAR     63  58  83 CALM      30.29R
Millville      CLEAR     61  61 100 CALM      30.30S
Atlantic City    N/A    N/A N/A N/A MISG      30.30S
Wrightstown    CLEAR     63  58  84 SW3       30.27R
Toms River     CLEAR     57  53  86 CALM      30.30S
Belmar         CLEAR     65  58  78 S6        30.31R
$$

PAZ047>061-062-071-240600-
EASTERN PENNSYLVANIA

CITY           SKY/WX    TMP DP  RH WIND       PRES   REMARKS
Philadelphia   PTCLDY    71  61  70 SW7       30.29F
Allentown      CLEAR     62  59  90 CALM      30.30R
Scranton       CLEAR     62  56  80 E8        30.30S
$$

CTZ002-004>006-009-010-012-RIZ004-006-007-MAZ004-011-015-240600-
SOUTHERN NEW ENGLAND
 IN CT

CITY           SKY/WX    TMP DP  RH WIND       PRES   REMARKS
Bradley INTL   CLEAR     64  57  78 W3        30.28R
Hartford       CLEAR     68  58  70 S3        30.27R
Danbury        CLEAR     59  57  93 SW3       30.30R
Wtrbury/Oxford   N/A     61  54  77 CALM      30.31S
Bridgeport     CLEAR     72  63  73 W3        30.27S
Meriden        CLEAR     61  57  87 CALM      30.28S
New Haven      CLEAR     71  63  75 CALM      30.28R
Chester        FAIR      66  61  82 VRB5      30.28S
Groton         CLEAR     70  63  78 SW6       30.27R
Wilimantic     CLEAR     61  59  93 CALM      30.28S

 IN RI

CITY           SKY/WX    TMP DP  RH WIND       PRES   REMARKS
Providence     CLEAR     65  58  78 SW7       30.27R
Block Island   CLEAR     67  63  87 SW8       30.28S
Westerly       CLEAR     67  61  81 CALM      30.28S
 IN MA

CITY           SKY/WX    TMP DP  RH WIND       PRES   REMARKS
Boston         CLEAR     68  57  68 SW7       30.25R
Worcester      CLEAR     60  53  77 SW8       30.29R
Westfield      CLEAR     58  57  97 S3        30.27R
Provincetown   CLEAR     65  60  84 SW9       30.26R
Nantucket      CLEAR     65  59  81 W6        30.27S
$$

ANZ330-335-338-340-345-350-353-355-240600-
COASTAL MARINE OBSERVATIONS


STATION/POSITION TIME  SKY/WX   TEMP    WIND        PRES    VSBY  WAVE
                                AIR SEA DIR/SP/G                  HT/PER
                 (UTC)          (F)     (DEG/KT/KT) (MB)    (MI)  (FT/S)
NY HARB ENTRANCE 0350            74 77  230/ 14/ 16 1024.7          3/ 4
20S FIRE ISLAND  0350            74 76  210/ 10/ 12 1025.1          2/ 8
GREAT SOUTH BAY  0400            74 79  220/ 10/ 14   N/A
23 SSW MONTAUK P 0350            74 74  230/ 10/ 12 1025.6          2/10
15 E BARNEGAT LI 0400               77                N/A           2/ 9
HUDSON CANYON    0350            73 78              1025.6          2/10
KINGS POINT      0400            72 76              1024.9
EXECUTION ROCKS  0400            72     190/ 10/ 12   N/A
CENTRAL LI SOUND 0400            74 75  230/ 14/ 16   N/A           2/ 3
EASTERN LI SOUND 0400            71 70  240/ 10/ 14   N/A
ROBBINS REEF     0400            72     260/  4/  5 1024.6
$$


>>>>>>>>>>>>>>>>>>>>>>>>>>>> KEY <<<<<<<<<<<<<<<<<<<<<<<<<<<
>                                                          <
>     SKY/WX - Sky Condition/Present Weather               <
>     TMP    - Temperature in Fahrenheit                   <
>     DP     - Dew Point in Fahrenheit                     <
>     RH     - Relative Humidity in Percent                <
>     WIND   - Direction (from) and Speed in MPH           <
>     PRES   - Mean Sea Level Pressure (inches of Hg)      <
>     WCI    - Wind Chill Index                            <
>     VSB    - VISIBILITY IN MILES                         <
>     HX     - HEAT INDEX                                  <
>     TC     - TEMPERATURE IN CELSIUS                      <
>     VRB    - VARIABLE WIND DIRECTION                     <
>                                                          <
>>>>>>>>>>>>>>>>>>>>>>>>>>>> KEY <<<<<<<<<<<<<<<<<<<<<<<<<<<



USA.gov is the U.S. government's official web portal to all federal, state and local government web resources and services.